Terminal Aerodrome Forecast
Issued by NWS Mt. Holly, NJ

Home | Current Version | Previous Version | Text Only | Print | Product List | Glossary On
Versions: 1 2 3 4 5 6 7 8 9 10 11 12 13 14 15 16
000
FTUS41 KPHI 032321
TAFTTN
TAF
KTTN 032321Z 0400/0424 22006KT P6SM FEW050
     FM040300 23004KT P6SM BKN080
     FM040800 25004KT P6SM SCT080
     FM041400 26008G16KT P6SM SCT050=

USA.gov is the U.S. government's official web portal to all federal, state and local government web resources and services.